Regional Weather Roundup
Issued by NWS

Home | Current Version | Previous Version | Text Only | Print | Product List | Glossary On
Versions: 1 2 3 4 5 6 7 8 9 10 11 12 13 14 15 16 17 18 19 20 21 22 23 24 25 26 27 28 29 30 31 32 33 34 35 36 37 38 39 40 41 42 43 44 45 46 47 48 49 50
000
ASUS44 KBMX 242110
RWRAL

ALABAMA REGIONAL WEATHER ROUNDUP
NATIONAL WEATHER SERVICE BIRMINGHAM AL
300 PM CST TUE JAN 24 2017

NOTE: "FAIR" INDICATES FEW OR NO CLOUDS BELOW 12,000 FEET
WITH NO SIGNIFICANT WEATHER AND/OR OBSTRUCTIONS TO VISIBILITY.

THE REMARK "TC" DENOTES TEMPERATURE IN DEGREES CELSIUS.

ALZ001>011-014-016>018-020-242200-
NORTH ALABAMA

CITY           SKY/WX    TMP DP  RH WIND       PRES   REMARKS
MUSCLE SHOALS  SUNNY     58  34  40 CALM      29.88F
HUNTSVILLE     SUNNY     58  39  49 W5        29.88S
DECATUR        SUNNY     55  34  45 CALM      29.89S
HALEYVILLE     FAIR      60  34  37 CALM      29.89S
GADSDEN        SUNNY     61  37  41 W9        29.88R
$$

ALZ012-013-022-023-030>036-040>044-242200-
WEST CENTRAL ALABAMA

CITY           SKY/WX    TMP DP  RH WIND       PRES   REMARKS
TUSCALOOSA     SUNNY     63  37  38 NW3       29.89F
$$

ALZ015-024>027-033>036-040>044-242200-
CENTRAL ALABAMA

CITY           SKY/WX    TMP DP  RH WIND       PRES   REMARKS
BIRMINGHAM     SUNNY     61  35  37 W3        29.90F
MONTGOMERY     SUNNY     65  36  34 VRB3      29.89S
SHELBY CO ARPT SUNNY     62  35  36 SW6       29.89S
MAXWELL AFB    SUNNY     64  39  40 VRB6      29.88S
GREENVILLE     FAIR      67  33  28 VRB3      29.87S
$$

ALZ019-021-028-029-037-038-045>048-242200-
EAST CENTRAL ALABAMA

CITY           SKY/WX    TMP DP  RH WIND       PRES   REMARKS
ANNISTON       SUNNY     62  35  36 SW7       29.87R
ALEXANDER CITY SUNNY     67  37  33 NW6       29.87S
AUBURN         SUNNY     63  40  42 VRB6      29.88R
$$

ALZ051>064-242200-
SOUTHWEST ALABAMA

CITY           SKY/WX    TMP DP  RH WIND       PRES   REMARKS
MOBILE         MOSUNNY   68  35  29 VRB3      29.91S
BROOKLEY FIELD SUNNY     64  43  46 SE8       29.92S
EVERGREEN      SUNNY     67  36  31 VRB3      29.89S
$$

ALZ049-050-065>069-242200-
SOUTHEAST ALABAMA

CITY           SKY/WX    TMP DP  RH WIND       PRES   REMARKS
DOTHAN         SUNNY     66  39  37 W5        29.90R
OZARK          SUNNY     66  40  38 W7        29.87R
TROY           SUNNY     66  35  31 W6        29.88S
EUFAULA        FAIR      69  37  30 NW5       29.85R
$$



USA.gov is the U.S. government's official web portal to all federal, state and local government web resources and services.